CGNBR FPST-FPPR

Flight info

Callsign CGNBR
Flight time 0h 37m
Altitude 2500
Route () (88 NM) DIRECT
Aircraft BE36/L-V/N

Departure

Time 2026-04-27 18:04
Airport São Tomé International Airport (FPST)

Arrival

Time 2026-04-27 18:41
Airport Principe Airport (FPPR)
Time Latitude Longitude Altitude Speed Heading
2026-04-27 17:53 0.37742 6.71025 32 ft 0 kts 40°
2026-04-27 18:03 0.37820 6.71046 32 ft 19 kts 335°
2026-04-27 18:03 0.37847 6.71057 32 ft 0 kts 98°
2026-04-27 18:04 0.37801 6.71281 31 ft 75 kts 104°
2026-04-27 18:04 0.37616 6.71841 461 ft 73 kts 124°
2026-04-27 18:04 0.37151 6.72066 716 ft 102 kts 177°
2026-04-27 18:05 0.40158 6.71607 659 ft 179 kts 346°
2026-04-27 18:05 0.41378 6.71394 744 ft 174 kts 14°
2026-04-27 18:06 0.42526 6.71728 788 ft 174 kts
2026-04-27 18:06 0.43733 6.71842 693 ft 173 kts
2026-04-27 18:06 0.44920 6.71848 688 ft 168 kts 358°
2026-04-27 18:06 0.46075 6.71790 684 ft 164 kts 358°
2026-04-27 18:07 0.47196 6.71725 678 ft 155 kts 357°
2026-04-27 18:07 0.48224 6.71666 676 ft 144 kts 358°
2026-04-27 18:07 0.49187 6.71619 678 ft 133 kts 358°
2026-04-27 18:07 0.50097 6.71561 679 ft 129 kts 357°
2026-04-27 18:08 0.50996 6.71523 682 ft 130 kts 359°
2026-04-27 18:08 0.51896 6.71475 686 ft 129 kts 357°
2026-04-27 18:08 0.52797 6.71435 688 ft 130 kts 359°
2026-04-27 18:08 0.53698 6.71382 685 ft 128 kts 357°
2026-04-27 18:09 0.54575 6.71345 687 ft 124 kts 358°
2026-04-27 18:09 0.55415 6.71302 691 ft 119 kts 358°
2026-04-27 18:09 0.56247 6.71252 688 ft 120 kts 357°
2026-04-27 18:09 0.57066 6.71215 689 ft 118 kts 358°
2026-04-27 18:10 0.57887 6.71185 692 ft 119 kts 358°
2026-04-27 18:10 0.58724 6.71170 691 ft 122 kts
2026-04-27 18:10 0.59528 6.71478 709 ft 130 kts 30°
2026-04-27 18:10 0.60355 6.71914 713 ft 137 kts 29°
2026-04-27 18:11 0.61218 6.72356 710 ft 142 kts 29°
2026-04-27 18:11 0.62106 6.72813 708 ft 144 kts 29°
2026-04-27 18:11 0.63000 6.73276 707 ft 145 kts 29°
2026-04-27 18:11 0.63897 6.73745 710 ft 147 kts 28°
2026-04-27 18:12 0.64813 6.74232 708 ft 152 kts 29°
2026-04-27 18:12 0.65752 6.74720 710 ft 153 kts 28°
2026-04-27 18:12 0.66700 6.75214 714 ft 154 kts 28°
2026-04-27 18:12 0.67646 6.75711 716 ft 153 kts 29°
2026-04-27 18:13 0.68590 6.76202 712 ft 153 kts 30°
2026-04-27 18:13 0.69525 6.76684 714 ft 153 kts 29°
2026-04-27 18:13 0.70475 6.77178 719 ft 154 kts 28°
2026-04-27 18:13 0.71428 6.77681 716 ft 155 kts 29°
2026-04-27 18:14 0.72374 6.78186 715 ft 153 kts 30°
2026-04-27 18:14 0.73312 6.78679 713 ft 151 kts 29°
2026-04-27 18:14 0.74234 6.79167 706 ft 149 kts 30°
2026-04-27 18:14 0.75163 6.79651 709 ft 151 kts 30°
2026-04-27 18:15 0.76099 6.80134 703 ft 152 kts 30°
2026-04-27 18:15 0.77031 6.80613 705 ft 150 kts 29°
2026-04-27 18:15 0.77955 6.81088 708 ft 149 kts 29°
2026-04-27 18:15 0.78884 6.81555 705 ft 149 kts 29°
2026-04-27 18:16 0.79809 6.82026 709 ft 149 kts 29°
2026-04-27 18:16 0.80726 6.82503 714 ft 152 kts 29°
2026-04-27 18:16 0.81655 6.83011 713 ft 152 kts 38°
2026-04-27 18:16 0.82174 6.83884 712 ft 147 kts 76°
2026-04-27 18:17 0.82458 6.84865 718 ft 147 kts 76°
2026-04-27 18:17 0.82760 6.85848 714 ft 148 kts 69°
2026-04-27 18:17 0.83488 6.86562 705 ft 149 kts 33°
2026-04-27 18:17 0.84365 6.87110 709 ft 148 kts 34°
2026-04-27 18:18 0.85243 6.87657 704 ft 149 kts 33°
2026-04-27 18:18 0.86121 6.88204 711 ft 149 kts 34°
2026-04-27 18:18 0.87015 6.88752 712 ft 151 kts 33°
2026-04-27 18:18 0.87915 6.89301 713 ft 151 kts 33°
2026-04-27 18:19 0.88815 6.89851 719 ft 151 kts 33°
2026-04-27 18:19 0.89714 6.90400 714 ft 151 kts 33°
2026-04-27 18:19 0.90592 6.90947 714 ft 150 kts 33°
2026-04-27 18:19 0.91469 6.91496 710 ft 148 kts 34°
2026-04-27 18:20 0.92346 6.92035 711 ft 148 kts 33°
2026-04-27 18:20 0.93227 6.92576 711 ft 149 kts 33°
2026-04-27 18:20 0.94120 6.93120 715 ft 151 kts 34°
2026-04-27 18:20 0.95023 6.93668 714 ft 153 kts 33°
2026-04-27 18:21 0.95927 6.94231 717 ft 153 kts 33°
2026-04-27 18:21 0.96830 6.94794 718 ft 153 kts 33°
2026-04-27 18:21 0.97730 6.95359 716 ft 151 kts 34°
2026-04-27 18:21 0.98615 6.95918 716 ft 150 kts 34°
2026-04-27 18:22 0.99497 6.96468 714 ft 150 kts 34°
2026-04-27 18:22 1.00392 6.97013 715 ft 151 kts 33°
2026-04-27 18:22 1.01295 6.97564 716 ft 152 kts 33°
2026-04-27 18:22 1.02198 6.98121 715 ft 152 kts 33°
2026-04-27 18:23 1.03076 6.98672 715 ft 150 kts 33°
2026-04-27 18:23 1.03956 6.99227 716 ft 149 kts 34°
2026-04-27 18:23 1.04837 6.99777 712 ft 149 kts 34°
2026-04-27 18:23 1.05723 7.00331 713 ft 152 kts 33°
2026-04-27 18:24 1.06622 7.00892 720 ft 153 kts 33°
2026-04-27 18:24 1.07533 7.01453 720 ft 154 kts 33°
2026-04-27 18:24 1.08441 7.02016 723 ft 154 kts 33°
2026-04-27 18:24 1.09347 7.02575 724 ft 152 kts 33°
2026-04-27 18:25 1.10243 7.03130 713 ft 150 kts 33°
2026-04-27 18:25 1.11119 7.03682 712 ft 148 kts 33°
2026-04-27 18:25 1.11993 7.04228 709 ft 148 kts 33°
2026-04-27 18:25 1.12873 7.04770 717 ft 149 kts 33°
2026-04-27 18:26 1.13764 7.05319 717 ft 150 kts 33°
2026-04-27 18:26 1.14642 7.05863 720 ft 150 kts 33°
2026-04-27 18:26 1.15530 7.06414 722 ft 151 kts 33°
2026-04-27 18:26 1.16423 7.06977 719 ft 152 kts 33°
2026-04-27 18:27 1.17310 7.07538 721 ft 150 kts 33°
2026-04-27 18:27 1.18191 7.08101 721 ft 150 kts 33°
2026-04-27 18:27 1.19073 7.08659 722 ft 150 kts 34°
2026-04-27 18:27 1.19964 7.09212 722 ft 151 kts 33°
2026-04-27 18:28 1.20863 7.09767 721 ft 151 kts 33°
2026-04-27 18:28 1.21748 7.10321 718 ft 150 kts 33°
2026-04-27 18:28 1.22624 7.10876 719 ft 149 kts 33°
2026-04-27 18:28 1.23496 7.11434 715 ft 149 kts 33°
2026-04-27 18:29 1.24374 7.11987 718 ft 150 kts 33°
2026-04-27 18:29 1.25261 7.12547 720 ft 152 kts 33°
2026-04-27 18:29 1.26157 7.13114 722 ft 153 kts 33°
2026-04-27 18:29 1.27057 7.13682 725 ft 153 kts 33°
2026-04-27 18:30 1.27955 7.14252 720 ft 152 kts 33°
2026-04-27 18:30 1.28831 7.14810 720 ft 150 kts 34°
2026-04-27 18:30 1.29712 7.15364 718 ft 149 kts 33°
2026-04-27 18:30 1.30584 7.15917 717 ft 148 kts 34°
2026-04-27 18:31 1.31458 7.16470 716 ft 150 kts 33°
2026-04-27 18:31 1.32345 7.17028 718 ft 152 kts 33°
2026-04-27 18:31 1.33240 7.17593 718 ft 152 kts 33°
2026-04-27 18:31 1.34131 7.18158 720 ft 151 kts 34°
2026-04-27 18:32 1.35024 7.18718 723 ft 152 kts 33°
2026-04-27 18:32 1.35910 7.19278 720 ft 150 kts 33°
2026-04-27 18:32 1.36793 7.19839 724 ft 151 kts 33°
2026-04-27 18:32 1.37650 7.20438 722 ft 150 kts 37°
2026-04-27 18:33 1.38498 7.21140 723 ft 167 kts 43°
2026-04-27 18:33 1.39409 7.21934 727 ft 179 kts 42°
2026-04-27 18:33 1.40362 7.22764 728 ft 184 kts 42°
2026-04-27 18:33 1.41322 7.23602 727 ft 187 kts 43°
2026-04-27 18:34 1.42303 7.24463 730 ft 188 kts 43°
2026-04-27 18:34 1.43296 7.25335 728 ft 190 kts 42°
2026-04-27 18:34 1.44295 7.26211 729 ft 191 kts 42°
2026-04-27 18:34 1.45302 7.27092 725 ft 192 kts 42°
2026-04-27 18:35 1.46303 7.27973 725 ft 190 kts 42°
2026-04-27 18:35 1.47292 7.28846 724 ft 189 kts 42°
2026-04-27 18:35 1.48278 7.29714 726 ft 189 kts 43°
2026-04-27 18:35 1.49273 7.30588 726 ft 191 kts 43°
2026-04-27 18:36 1.50278 7.31467 725 ft 192 kts 42°
2026-04-27 18:36 1.51283 7.32348 726 ft 192 kts 42°
2026-04-27 18:36 1.52270 7.33220 722 ft 191 kts 42°
2026-04-27 18:36 1.53262 7.34108 727 ft 191 kts 42°
2026-04-27 18:37 1.54258 7.35003 727 ft 192 kts 42°
2026-04-27 18:37 1.55264 7.35868 848 ft 180 kts 24°
2026-04-27 18:37 1.56255 7.35618 1568 ft 149 kts 319°
2026-04-27 18:37 1.57215 7.35019 1476 ft 174 kts 333°
2026-04-27 18:38 1.58324 7.34798 1794 ft 159 kts
2026-04-27 18:38 1.59451 7.34885 1798 ft 171 kts
2026-04-27 18:38 1.60706 7.35095 1589 ft 187 kts 18°
2026-04-27 18:38 1.61829 7.35725 1596 ft 188 kts 30°
2026-04-27 18:39 1.62981 7.36426 1402 ft 198 kts 36°
2026-04-27 18:39 1.64175 7.37077 1216 ft 202 kts
2026-04-27 18:39 1.65536 7.36821 1086 ft 193 kts 356°
2026-04-27 18:39 1.66847 7.37105 821 ft 196 kts 26°
2026-04-27 18:40 1.67930 7.37690 1013 ft 166 kts 30°
2026-04-27 18:40 1.68787 7.38520 660 ft 187 kts 63°
2026-04-27 18:40 1.69130 7.39728 522 ft 171 kts 91°
2026-04-27 18:40 1.68921 7.40727 674 ft 136 kts 133°
2026-04-27 18:41 1.68392 7.40856 706 ft 112 kts 187°
2026-04-27 18:41 1.67562 7.41064 659 ft 90 kts 167°
2026-04-27 18:41 1.66973 7.41099 571 ft 79 kts 179°
2026-04-27 18:41 1.66503 7.41104 551 ft 47 kts 180°
2026-04-27 18:42 1.66415 7.41109 557 ft 2 kts 128°
2026-04-27 18:42 1.66412 7.41112 554 ft 1 kts 128°
2026-04-27 18:42 1.66481 7.41131 551 ft 14 kts 57°
2026-04-27 18:42 1.66495 7.41170 552 ft 5 kts 82°
2026-04-27 18:43 1.66497 7.41179 552 ft 0 kts 70°
2026-04-27 18:43 1.66501 7.41193 553 ft 8 kts 75°
2026-04-27 18:44 1.66506 7.41211 551 ft 0 kts 78°
2026-04-27 18:44 1.66506 7.41215 551 ft 1 kts 79°
2026-04-27 18:44 1.66507 7.41217 551 ft 0 kts 80°
2026-04-27 18:44 1.66507 7.41221 551 ft 0 kts 78°